Preview of NWS' New Version of Forecast
This preview is not operational and should not be used for support decisions.

Regional Weather Roundup (RWR)

Issued by National Weather Service (NWS)

                            
000
ASUS43 KDTX 182110
RWRMI 
MICHIGAN HOURLY REGIONAL WEATHER ROUNDUP
NATIONAL WEATHER SERVICE DETROIT/PONTIAC MI
500 PM EDT TUE JUN 18 2019

NOTE: "FAIR" INDICATES FEW OR NO CLOUDS BELOW 12,000 FEET WITH NO
SIGNIFICANT WEATHER AND/OR OBSTRUCTION TO VISIBILITY.

MIZ047>049-052>055-059>063-066>070-074>076-081>083-182200-
SOUTHEAST LOWER MICHIGAN
  
CITY           SKY/WX    TMP DP  RH WIND       PRES   REMARKS
ADRIAN         FAIR      77  59  53 VRB3      29.90F                  
ALMA           PTSUNNY   79  55  43 SW5       29.90F                  
ANN ARBOR      FAIR      77  61  57 VRB5      29.89F                  
BAD AXE        FAIR      77  51  40 NW3       29.90F                  
CARO           PTSUNNY   77  60  55 CALM      29.90S                  
DETROIT CITY   PTSUNNY   76  59  55 SE7       29.89F                  
DETROIT        PTSUNNY   76  59  55 S9        29.89F                  
FLINT          FAIR      78  58  49 SW5       29.89F                  
GROSSE ILE     FAIR      71  63  77 S8        29.90F                  
HILLSDALE      CLOUDY    76  58  52 SW3       29.90F                  
HOWELL         FAIR      77  57  49 S3        29.90F                  

CITY           SKY/WX    TMP DP  RH WIND       PRES   REMARKS
JACKSON        FAIR      76  61  59 CALM      29.90F                  
LAMBERTVILLE   FAIR      76  62  61 E6        29.90S                  
LANSING        FAIR      78  60  53 W7        29.90F                  
LAPEER         FAIR      78  59  50 CALM      29.90F                  
MASON          FAIR      78  59  52 N3        29.90F                  
MONROE         FAIR      76  64  66 SE5       29.89F                  
MT. CLEMENS    MOSUNNY   75  65  71 SE7       29.89F                  
PONTIAC        FAIR      75  59  57 VRB5      29.88F                  
PORT HOPE        N/A     61  54  77 E10       29.91F                  
PORT HURON     CLOUDY    77  57  50 CALM      29.90F                  
TRI CITIES     FAIR      76  58  53 SW5       29.89F                  
MIDLAND        FAIR      79  55  42 NW3       29.88F                  
TROY           CLOUDY    77  54  44 CALM      29.91F                  
SAGINAW HB     FAIR      79  57  47 W5        29.89F                  
$$
MIZ043>046-050>051-056>058-064>065-071>073-077>080-182200-
SOUTHWEST LOWER MICHIGAN
  
CITY           SKY/WX    TMP DP  RH WIND       PRES   REMARKS
BATTLE CREEK   PTSUNNY   80  62  54 VRB5      29.90F                  
BENTON HARBOR  FAIR      67  60  78 NW8       29.91F                  
BIG RAPIDS     FAIR      78  58  50 SW5       29.89F                  
COLDWATER      FAIR      77  62  59 CALM      29.89F                  
FREMONT        FAIR      78  56  47 SW10      29.89F                  
HOLLAND        FAIR      72  60  66 NW7       29.91F                  
GRAND RAPIDS   PTSUNNY   78  59  51 W3        29.89F                  
IONIA          PTSUNNY   78  53  42 W3        29.89F                  
KALAMAZOO      FAIR      80  58  46 CALM      29.89F                  
LUDINGTON      FAIR      65  58  77 W3        29.90F                  
MARSHALL       PTSUNNY   79  61  54 CALM      29.89F                  
MOUNT PLEASANT FAIR      78  57  48 CALM      29.88F                  
MUSKEGON       PTSUNNY   72  58  61 VRB7      29.91F                  
SOUTH HAVEN    FAIR      69  60  74 NW6       29.91F                  
$$
MIZ016>042-182200-
NORTHERN LOWER MICHIGAN
  
CITY           SKY/WX    TMP DP  RH WIND       PRES   REMARKS
ALPENA         CLOUDY    66  47  50 E8        29.89F                  
BEAVER ISLAND  PTSUNNY   65  49  57 W7        29.91S                  
BELLAIRE       FAIR      74  52  45 SW3       29.89S                  
CADILLAC       FAIR      78  57  48 SW6       29.90S                  
CHARLEVOIX     FAIR      70  56  59 W8        29.92F                  
FRANKFORT      FAIR      65  56  70 SW3       29.90F                  
GAYLORD        FAIR      74  48  39 NW5       29.89F                  
GRAYLING       FAIR      75  57  53 W8        29.87F                  
HARBOR SPRINGS FAIR      66  47  51 W5        29.90F                  
HOUGHTON LAKE  FAIR      76  53  44 W7        29.89F                  
MANISTEE       FAIR      70  60  70 W8        29.89F                  
OSCODA         FAIR      72  49  43 SE8       29.89S                  
PELLSTON       PTSUNNY   74  48  39 W9        29.90S                  
ROGERS CITY    CLOUDY    70  51  50 E7        29.90F                  
TRAVERSE CITY  PTSUNNY   71  55  56 NE8       29.87F                  
$$
MIZ007>008-015-182200-
EASTERN UPPER MICHIGAN
  
CITY           SKY/WX    TMP DP  RH WIND       PRES   REMARKS
KINROSS        PTSUNNY   71  51  49 S7        29.89S                  
MACKINAC ISLAN FAIR      68  45  43 SW7       29.90S                  
NEWBERRY       CLOUDY    64  50  60 SE3       29.90S                  
S. S. MARIE    CLOUDY    72  53  51 E8        29.87F                  
MUNISING         N/A     54  32  43 N8        29.90F                  
$$
MIZ004>006-011>014-085-182200-
CENTRAL UPPER MICHIGAN
  
CITY           SKY/WX    TMP DP  RH WIND       PRES   REMARKS
MANISTIQUE     CLOUDY    55  52  89 S7        29.89F                  
ESCANABA       FAIR      67  58  72 S10G18    29.86F                  
MENOMINEE      PTSUNNY   71  61  70 SW14G21   29.86F                  
SAWYER-GWINN   PTSUNNY   55  50  82 N13       29.90F                  
$$
MIZ001>003-009>011-084-182200-
WESTERN UPPER MICHIGAN
  
CITY           SKY/WX    TMP DP  RH WIND       PRES   REMARKS
IRON MOUNTAIN  FAIR      75  53  46 N14G22    29.86S                  
HOUGHTON       CLOUDY    63  50  62 VRB6      29.91F                  
COPPER HARBOR    N/A     45  44  97 NE3       29.93F                  
IRONWOOD       CLOUDY    61  54  77 N9        29.95S                  
$$

ABBREVIATIONS USED IN REMARKS
   TC - TEMPERATURE IN CELSIUS
  WCI - WIND CHILL INDEX
   HX - HEAT INDEX
  VSB - VISIBILITY